Regional Weather Roundup
Issued by NWS

Home | Current Version | Previous Version | Text Only | Print | Product List | Glossary On
Versions: 1 2 3 4 5 6 7 8 9 10 11 12 13 14 15 16 17 18 19 20 21 22 23 24 25 26 27
000
ASUS44 KLIX 261406
RWRLA
LOUISIANA WEATHER ROUNDUP
NATIONAL WEATHER SERVICE NEW ORLEANS LA
900 AM CDT SAT MAY 26 2018

NOTE: "FAIR" INDICATES FEW OR NO CLOUDS BELOW 12,000 FEET WITH NO
      SIGNIFICANT WEATHER AND/OR OBSTRUCTIONS TO VISIBILITY.
      SKY/WX - SKY CONDITION AND SIGNIFICANT WEATHER.
      TMP - AIR TEMPERATURE.    DP   - DEWPOINT TEMPERATURE.
      RH  - RELATIVE HUMIDITY.  PRES - PRESSURE.
      HX  - HEAT INDEX.         WCI  - WIND CHILL INDEX.

*  THESE STATIONS ARE NOT NWS OR FAA STATIONS AND ARE NOT UNDER
   NWS QUALITY CONTROL.

LAZ040-048-061>063-065-066-069-261500-
SOUTHEAST LOUISIANA

CITY           SKY/WX    TMP DP  RH WIND       PRES   REMARKS
N.O. INTL ARPT FAIR      82  72  71 N3        29.91R
N.O. LAKEFRONT FAIR      82  71  69 NW5       29.92R
N.O. DOWNTOWN* FAIR      82  71  69 CALM      29.93R
RESERVE*         N/A     89  76  65 CALM      29.91S HX 100
SLIDELL        FAIR      80  72  76 NE6       29.92R
BATON ROUGE    FAIR      79  73  82 SE3       29.91S
BOOTHVILLE     FAIR      83  74  74 VRB3      29.92R
BELLE CHASSE   PTSUNNY   82  73  74 CALM      29.91R
BOGALUSA*      CLOUDY    75  72  91 E5        29.94R
GALLIANO*      FAIR      82  71  69 CALM      29.91S
NEW ROADS*     FAIR      81  74  78 CALM      29.91S
GONZALES*      FAIR      80  72  76 W3        29.91R
HAMMOND*       FAIR      77  72  83 CALM      29.92R
HOUMA*         MOSUNNY   81  73  78 CALM      29.91S
PORT FOURCHON* PTSUNNY   82  72  69 NW5       29.91R

$$

LAZ041-044-053-054-261500-
SOUTHWEST LOUISIANA

CITY           SKY/WX    TMP DP  RH WIND       PRES   REMARKS
LAKE CHARLES   FAIR      80  73  79 CALM      29.87
LAFAYETTE      FAIR      82  75  79 CALM      29.90S
PATTERSON      FAIR      80  75  84 CALM      29.91S
SALT POINT       N/A    N/A N/A N/A W3        29.89S
NEW IBERIA     FAIR      79  72  79 SE5       29.91S
CHENAULT AIRPK MOSUNNY   81  73  78 CALM      29.88F

$$

LAZ027-028-261500-
CENTRAL LOUISIANA

CITY           SKY/WX    TMP DP  RH WIND       PRES   REMARKS
FORT POLK      MOSUNNY   81  71  71 W5        29.91F
ALEXANDRIA INT FAIR      76  73  91 S6        29.87F
ALEXANDRIA     CLOUDY    76  75  97 CALM      29.89S

$$

LAZ001-002-261500-
NORTHWEST LOUISIANA

CITY           SKY/WX    TMP DP  RH WIND       PRES   REMARKS
SHREVEPORT     FAIR      79  73  82 SW3       29.87R
BARKSDALE AFB  FAIR      78  72  82 CALM      29.86R
DTN SHREVEPORT FAIR      81  72  74 VRB3      29.87R

$$

LAZ014-016-261500-
NORTHEAST LOUISIANA

CITY           SKY/WX    TMP DP  RH WIND       PRES   REMARKS
MONROE         PTSUNNY   76  73  91 SW3       29.88S
TALLULAH       PTSUNNY   76  75  97 S5        29.90S

$$





USA.gov is the U.S. government's official web portal to all federal, state and local government web resources and services.